Weather History for KPPA - April, 2013

Change the Weather History Date:

Tuesday, April 23, 2013

  Actual Average Record
Temperature  
Mean Temperature 30 °F -  
Max Temperature 34 °F 73 °F 98 °F (1989)
Min Temperature 25 °F 43 °F 25 °F (2013)
Degree Days  
Heating Degree Days 36    
Moisture  
Dew Point 26 °F    
Average Humidity 87    
Maximum Humidity 92    
Minimum Humidity 79    
Precipitation  
Precipitation 0.00 in - - ()
Sea Level Pressure  
Sea Level Pressure 30.16 in    
Wind  
Wind Speed 12 mph (North)    
Max Wind Speed 32 mph    
Max Gust Speed 43 mph    
Visibility 7 miles    
Events Snow    
Averages and records for this station are not official NWS values.
T = Trace of Precipitation, MM = Missing Value Source: NWS Daily Summary

Daily Weather History Graph

Daily Weather History Graph

Search for Another Location

Airport or City:

Trip Planner

Search our weather history database for the weather conditions in past years. The results will help you decide how hot, cold, wet, or windy it might be!

Date:

Astronomy

Apr. 23, 2013 Rise Set
Actual Time 7:00 AM CDT 8:24 PM CDT
Civil Twilight 6:34 AM CDT 8:50 PM CDT
Nautical Twilight 6:02 AM CDT 9:23 PM CDT
Astronomical Twilight 5:28 AM CDT 9:56 PM CDT
Moon 6:24 PM CDT (4/23) 5:25 AM CDT (4/23)
Length of Visible Light 14h 16m
Length of Day
13h 23m
Waxing Gibbous, 94% of the Moon is Illuminated
Apr 23
Waxing Gibbous
Apr 25
Full
May 2
Last Quarter
May 9
New
May 17
First Quarter

Hourly Weather History & Observations

Time (CDT) Temp. Windchill Dew Point Humidity Pressure Visibility Wind Dir Wind Speed Gust Speed Precip Events Conditions
12:15 AM 34.0 °F 19.9 °F 29.7 °F 84% 30.04 in 5.0 mi North 32.2 mph 39.1 mph N/A   Haze
12:35 AM 32.2 °F 17.9 °F 29.3 °F 89% 30.04 in 3.0 mi North 29.9 mph 42.6 mph N/A   Overcast
12:55 AM 32.0 °F 18.6 °F 29.1 °F 89% 30.05 in 3.0 mi NNE 25.3 mph 36.8 mph N/A   Overcast
1:15 AM 32.0 °F 18.4 °F 29.5 °F 90% 30.05 in 2.5 mi North 26.5 mph 33.4 mph N/A   Overcast
1:35 AM 31.5 °F 18.5 °F 29.1 °F 91% 30.07 in 3.0 mi North 23.0 mph 29.9 mph N/A   Overcast
1:55 AM 30.9 °F 18.1 °F 28.8 °F 92% 30.08 in 2.5 mi North 21.9 mph 32.2 mph N/A   Overcast
2:15 AM 30.7 °F 18.5 °F 28.4 °F 91% 30.08 in 2.5 mi North 19.6 mph 28.8 mph N/A   Overcast
2:55 AM 29.8 °F 17.7 °F 27.5 °F 91% 30.07 in 2.5 mi North 18.4 mph 26.5 mph N/A   Overcast
3:15 AM 30.0 °F 17.9 °F 28.0 °F 92% 30.07 in 2.5 mi North 18.4 mph 23.0 mph N/A   Overcast
3:35 AM 29.8 °F 17.3 °F 27.7 °F 92% 30.07 in 2.5 mi North 19.6 mph 26.5 mph N/A   Overcast
3:55 AM 29.5 °F 18.0 °F 27.5 °F 92% 30.08 in 2.5 mi North 16.1 mph 24.2 mph N/A   Overcast
5:15 AM 28.8 °F - 26.4 °F 91% 30.10 in 3.0 mi Calm Calm - N/A   Unknown
5:35 AM 28.2 °F - 25.7 °F 90% 30.11 in 4.0 mi Calm Calm - N/A   Overcast
5:55 AM 28.0 °F - 25.7 °F 91% 30.10 in 4.0 mi Calm Calm - N/A   Overcast
6:15 AM 27.9 °F - 25.3 °F 90% 30.10 in 4.0 mi Calm Calm - N/A   Overcast
6:35 AM 27.5 °F - 24.8 °F 90% 30.10 in - Calm Calm - N/A   Unknown
6:55 AM 27.5 °F - 25.5 °F 92% 30.11 in 4.0 mi Calm Calm - N/A   Mist
7:15 AM 27.1 °F - 24.6 °F 90% 30.11 in 4.0 mi Calm Calm - N/A   Overcast
7:35 AM 27.3 °F - 24.8 °F 90% 30.13 in 4.0 mi Calm Calm - N/A   Overcast
8:55 AM - - - N/A% 30.17 in - Calm Calm - N/A   Unknown
1:15 PM 29.3 °F - 25.7 °F 86% 30.18 in 10.0 mi Calm Calm - N/A   Unknown
1:35 PM 29.8 °F - 26.2 °F 86% 30.17 in 10.0 mi Calm Calm - N/A   Overcast
1:55 PM 29.8 °F - 26.2 °F 86% 30.18 in 10.0 mi Calm Calm - N/A   Overcast
2:15 PM 29.7 °F - 26.1 °F 86% 30.17 in 10.0 mi Calm Calm - N/A   Overcast
2:35 PM 29.5 °F - 26.2 °F 88% 30.17 in 10.0 mi Calm Calm - N/A   Overcast
2:55 PM 30.0 °F - 26.1 °F 85% 30.16 in 10.0 mi Calm Calm - N/A   Overcast
3:15 PM 30.2 °F - 26.2 °F 85% 30.17 in 10.0 mi Calm Calm - N/A   Overcast
3:35 PM 30.2 °F - 26.2 °F 85% 30.16 in 10.0 mi Calm Calm - N/A   Overcast
3:55 PM 30.0 °F - 25.9 °F 85% 30.16 in 10.0 mi Calm Calm - N/A   Overcast
4:15 PM 30.4 °F - 26.2 °F 85% 30.15 in 10.0 mi Calm Calm - N/A   Overcast
4:35 PM 30.2 °F - 25.9 °F 84% 30.15 in 10.0 mi Calm Calm - N/A   Overcast
4:55 PM 29.8 °F - 25.5 °F 84% 30.15 in 10.0 mi Calm Calm - N/A   Overcast
5:55 PM 29.8 °F - 24.8 °F 81% 30.15 in 10.0 mi Calm Calm - N/A   Unknown
6:15 PM 29.7 °F - 24.8 °F 82% 30.16 in 10.0 mi Calm Calm - N/A   Overcast
6:35 PM 29.3 °F - 24.4 °F 82% 30.18 in 10.0 mi Calm Calm - N/A   Overcast
6:55 PM 29.3 °F - 24.4 °F 82% 30.19 in 10.0 mi Calm Calm - N/A   Overcast
7:15 PM 29.5 °F - 24.4 °F 81% 30.19 in 10.0 mi Calm Calm - N/A   Overcast
7:35 PM 29.7 °F - 24.4 °F 81% 30.19 in 10.0 mi Calm Calm - N/A   Overcast
7:55 PM 29.5 °F - 23.7 °F 79% 30.18 in 10.0 mi Calm Calm - N/A   Overcast
8:15 PM 28.8 °F - 23.5 °F 81% 30.21 in 10.0 mi Calm Calm - N/A   Mostly Cloudy
8:35 PM 29.1 °F - 23.9 °F 81% 30.21 in 10.0 mi Calm Calm - N/A   Overcast
8:55 PM 28.6 °F - 23.9 °F 83% 30.23 in 10.0 mi Calm Calm - N/A   Overcast
9:15 PM 29.1 °F - 24.3 °F 82% 30.25 in 10.0 mi Calm Calm - N/A   Overcast
9:35 PM 29.1 °F - 24.1 °F 81% 30.26 in 7.0 mi Calm Calm - N/A Snow Light Snow
9:55 PM 28.4 °F - 24.8 °F 86% 30.27 in 4.0 mi Calm Calm - N/A Snow Light Snow
10:15 PM 27.5 °F - 24.8 °F 90% 30.28 in 7.0 mi Calm Calm - N/A Snow Light Snow
10:35 PM 27.1 °F - 24.8 °F 91% 30.28 in 10.0 mi Calm Calm - N/A   Scattered Clouds
10:55 PM 27.0 °F - 24.8 °F 92% 30.28 in 7.0 mi Calm Calm - N/A   Scattered Clouds
11:15 PM 26.4 °F - 24.4 °F 92% 30.29 in 7.0 mi Calm Calm - N/A   Clear
11:35 PM 25.7 °F - 23.7 °F 92% 30.29 in 7.0 mi Calm Calm - N/A   Clear
11:55 PM 25.2 °F - 23.0 °F 91% 30.29 in 7.0 mi Calm Calm - N/A   Clear